Hourly Data Report for July 06, 2011

HALIFAX STANFIELD INT'L A
NOVA SCOTIA

44°52'48.060" N
63°30'00.050" W
145.40 m
8202250
71395
YHZ

Download Data

Hourly Data (July 2011)
Hourly Data Report for July 6, 2011
TIME
LST
Temp Definition
°C
Dew Point Definition
°C
Rel Hum Definition
%
Precip. Amount Definition
mm

Wind Dir Definition
10's deg

Wind Spd Definition
km/h
Visibility Definition
km
Stn Press Definition
kPa
Hmdx Definition


Wind Chill Definition


Weather Definition


00:00 16.5 14.8 90   19 9 24.1 99.52     Mostly Cloudy
01:00 17.1 14.2 83   20 13 24.1 99.52     Mostly Cloudy
02:00 15.7 13.6 87   20 11 24.1 99.52     Mostly Cloudy
03:00 14.8 13.4 91   21 11 24.1 99.56     Mostly Cloudy
04:00 14.7 13.4 92   19 7 24.1 99.58     Mostly Cloudy
05:00 15.0 13.5 91   20 9 24.1 99.64     Mostly Cloudy
06:00 16.4 13.8 85   19 9 24.1 99.66     Mostly Cloudy
07:00 18.8 14.3 75   23 11 24.1 99.69     Mostly Cloudy
08:00 21.4 15.0 67   21 15 24.1 99.69 25   Mainly Clear
09:00 22.7 15.2 63   21 13 24.1 99.67 27   Clear
10:00 25.1 16.2 58   19 11 24.1 99.64 30   Clear
11:00 27.4 15.5 48   22 24 24.1 99.61 32   Clear
12:00 28.6 15.8 46   21 22 24.1 99.59 33   Clear
13:00 29.1 15.2 43   22 32 24.1 99.55 33   Mostly Cloudy
14:00 28.3 14.5 43   20 33 24.1 99.54 32   Mostly Cloudy
15:00 26.9 13.8 44   20 37 24.1 99.55 30   Mostly Cloudy
16:00 26.2 14.9 50   20 30 24.1 99.54 30   Mostly Cloudy
17:00 24.0 15.2 58   20 26 24.1 99.50 28   Mostly Cloudy
18:00 23.3 16.8 67   19 28 24.1 99.47 28   Mainly Clear
19:00 22.4 16.2 68   19 19 24.1 99.44 27   Mainly Clear
20:00 17.8 14.8 83   16 20 24.1 99.44     Mainly Clear
21:00 14.3 13.0 92   15 19 24.1 99.47     Mainly Clear
22:00 14.5 13.6 94   17 20 1.0 99.46     Fog
23:00 15.2 14.4 95   17 17 1.2 99.41     Fog

Notes on Data Quality.

Legend

  • E = Estimated
  • M = Missing
  • NA = Not Available*
  • [empty] = Indicates an unobserved value
Date modified: